XINGYUN-2 02

导读 | 星芒AI

XINGYUN-2 02 是中国“星云工程”计划中的第二颗技术验证卫星,于2022年发射。该卫星主要用于测试新型通信载荷、星间链路和星座组网技术,旨在推动低轨卫星互联网的发展。它与XINGYUN-2 01卫星共同构建实验星座,验证天地一体化通信系统的可行性。该卫星任务为中国未来大规模卫星星座建设提供了重要技术支撑。

基本信息
目录编号:
45603
目录名称:
XINGYUN-2 02
国际标识:
2020-028B
轨道中心:
EARTH
卫星名称:
XINGYUN-2 02
卫星全名:
--
卫星状态:
在轨 (已飞行1996 天)
发射日期:
2020-05-12 UTC
国别 :
中国 (CN)
星等 :
--
轨道信息
数据来源 国际轨道数据
星历时间: 2025-10-28T23:51:17+0800
15小时前
查看轨道信息
半长轴: 6913.836km
偏心率: 0.0011093
轨道倾角: 97.511°
近地点辐角 357.562°
升交点赤经 306.929°
平近点角 2.556°
近地点: 528.031km
远地点: 543.371km
周期: 95.354分钟
每日圈数: 15.101644
详细信息
使用方式:
暂无
2D轨道图
3D轨道图
轨道高度分析图
轨道倾角分析图
轨道综合分析图
查看轨道综合分析图